"Pseudo-MPEC" for C028W42

Created 2019 Jan 12 1:18:09 UT using Find_Orb

Click here for an explanation of pseudo-MPECs

 
 Astrometry: 
     C028W42  C2019 01 09.37856 08 22 32.88 +52 09 13.9    ~19AI 22.0 GVNEOCPG96
     C028W42  C2019 01 09.38402 08 22 37.57 +52 09 16.3    ~19AI 21.3 GVNEOCPG96
     C028W42  C2019 01 09.38943 08 22 42.10 +52 09 19.4    ~19AI 21.0 GVNEOCPG96
     C028W42  C2019 01 09.39476 08 22 46.60 +52 09 23.1    ~19AI 21.3 GVNEOCPG96
     C028W42  C2019 01 09.48703 08 24 06.38 +52 10 00.3    ~19CI 21.6 GVNEOCPG96
     C028W42  C2019 01 09.48744 08 24 06.55 +52 10 01.1    ~19CI 20.8 GVNEOCPG96
     C028W42  C2019 01 09.48979 08 24 08.68 +52 10 00.9    ~19CI 21.4 GVNEOCPG96
     C028W42  C2019 01 09.49020 08 24 09.12 +52 10 00.7    ~19CI 21.3 GVNEOCPG96
     C028W42  C2019 01 09.49452 08 24 12.95 +52 10 01.9    ~19DI 21.1 GVNEOCPG96
     C028W42  C2019 01 09.49495 08 24 13.27 +52 10 02.4    ~19DI 21.4 GVNEOCPG96
     C028W42  C2019 01 09.49538 08 24 13.69 +52 10 02.0    ~19DI 21.1 GVNEOCPG96
     C028W42  C2019 01 09.49581 08 24 14.02 +52 10 02.8    ~19DI 21.4 GVNEOCPG96
     C028W42 KC2019 01 09;p0KaR@vx8k:B9!.rR.?Astrometry`RP;tr9iyZ^IEcdw*aOBRjJ04
     C028W42 KC2019 01 10Z67:ih0c:IRm]kp(T[Z^B/ZNyEsDqjv,'3FpU0Yredacted;JYfqJ04
     C028W42 KC2019 01 103pEC*svOlu!\qa=*a3:rGd+3[jI0ULC%q@0jclickq96l:McUjG=J04
     C028W42 KC2019 01 118;w\d-kherek*qb%[-vtChiJ+Do,;MHPR'KDBHZa/KR9vnr1!n`yH21
     C028W42 KC2019 01 11(ik*?weDA.FUIU[UI1IACK6)J2s_l^(]B5-FVomfrHGMKfor2wm/H21
     C028W42 KC2019 01 11E?dkWlOyHdaotVb:)d;VjNS]]UtP'7explanationT'Wrr4?GhgeH21

Station data:
(G96) Mt. Lemmon Survey  (N32.442754 W110.788720)  US/Arizona.  Observers B.
   M. Africano, E. J. Christensen, G. A. Farneth, D. C. Fuls, A. R. Gibbs, A.
   D. Grauer, H. Groeller, J. A. Johnson, R. A. Kowalski, S. M. Larson, G. J.
   Leonard, R. L. Seaman, F. C. Shelly. 1.5-m reflector + 10K CCD.
(H21) Astronomical Research Observatory, Westfield  (N39.483057 W87.968270)
   US/Illinois. 0.76-m f/3.0 astrograph + CCD.
(J04) ESA Optical Ground Station, Tenerife  (N28.300924 W16.511830)  Canary
   Islands (Spain).  Observer D. Abreu. Measurers M. Micheli, D. Koschny, E.
   Schwab, M. Busch, A. Knöfel. 1.0-m f/4.4 reflector + CCD.

Orbital elements:  C028W42
   Perihelion 2019 Feb 13.356016 +/- 0.0296 TT =  8:32:39 (JD 2458527.856016)
Epoch 2019 Jan 11.0 TT = JDT 2458494.5   Earth MOID: 0.0097   AutoNEOCP
M 348.24611836 +/- 0.09             (J2000 ecliptic)
n   0.35237666 +/- 0.00253          Peri.  200.00354 +/- 0.056
a   1.98517114 +/- 0.00949          Node   311.97079 +/- 0.042
e   0.5227106 +/- 0.00229           Incl.    5.24611 +/- 0.012
P   2.80                   H 25.9   G  0.15   U  8.7  
q 0.94750112 +/- 7.26e-5    Q 3.02284116 +/- 0.0191
From 18 observations 2019 Jan. 9-11 (47.1 hr); mean residual 0".36
Residuals in arcseconds: 
190109 G96  .11-  .47+    190109 G96  .47-  .05+    190109 J04  .06-  .20-    
190109 G96  .53+  .43-    190109 G96  .25+  .26-    190110 J04  .09+  .12-    
190109 G96  .03+  .50-    190109 G96  .36+  .13-    190110 J04  .02+  .19-    
190109 G96  .17-  .18+    190109 G96  .20-  .27+    190111 H21  .11-  .07-    
190109 G96  .77+  .16+    190109 G96  .16+  .24-    190111 H21  .07+  .27+    
190109 G96  1.0-  .86+    190109 G96  .30-  .46+    190111 H21  .04+  .08-    

Ephemerides (geocentric):
Date (UTC) HH   RA              Dec         delta   r     elong  mag " sig PA
---- -- -- --  -------------   -----------  ------ ------ -----  --- ---- ---
2019 01 12 01  09 12 24.398   +52 01 37.10  .05828 1.0312 144.1 21.2 1.41 103
2019 01 12 02  09 13 20.963   +52 00 39.11  .05808 1.0310 144.0 21.2 1.52 103
2019 01 12 03  09 14 17.856   +51 59 38.90  .05789 1.0308 143.9 21.2 1.63 103
2019 01 12 04  09 15 15.078   +51 58 36.45  .05770 1.0306 143.8 21.2 1.75 102
2019 01 12 05  09 16 12.630   +51 57 31.72  .05750 1.0304 143.8 21.2 1.88 102
2019 01 12 06  09 17 10.513   +51 56 24.67  .05731 1.0302 143.7 21.2 2.01 102
2019 01 12 07  09 18 08.727   +51 55 15.26  .05712 1.0300 143.6 21.2 2.14 102
2019 01 12 08  09 19 07.274   +51 54 03.46  .05692 1.0298 143.5 21.2 2.28 102
2019 01 12 09  09 20 06.153   +51 52 49.23  .05673 1.0296 143.5 21.2 2.42 102
2019 01 12 10  09 21 05.365   +51 51 32.54  .05654 1.0294 143.4 21.2 2.57 102
2019 01 12 11  09 22 04.911   +51 50 13.34  .05635 1.0292 143.3 21.2 2.72 102
2019 01 12 12  09 23 04.791   +51 48 51.59  .05616 1.0290 143.2 21.2 2.88 102
2019 01 12 13  09 24 05.006   +51 47 27.27  .05597 1.0288 143.1 21.2 3.04 102
2019 01 12 14  09 25 05.556   +51 46 00.32  .05578 1.0286 143.1 21.2 3.21 102
2019 01 12 15  09 26 06.442   +51 44 30.70  .05559 1.0284 143.0 21.2 3.38 102
2019 01 12 16  09 27 07.663   +51 42 58.39  .05540 1.0282 142.9 21.2 3.56 103
2019 01 12 17  09 28 09.220   +51 41 23.33  .05521 1.0280 142.8 21.1 3.74 103
2019 01 12 18  09 29 11.114   +51 39 45.48  .05503 1.0278 142.7 21.1 3.93 103
2019 01 12 19  09 30 13.344   +51 38 04.81  .05484 1.0276 142.6 21.1 4.13 103
2019 01 12 20  09 31 15.911   +51 36 21.26  .05465 1.0274 142.6 21.1 4.33 103
2019 01 12 21  09 32 18.814   +51 34 34.81  .05447 1.0272 142.5 21.1 4.53 103
2019 01 12 22  09 33 22.054   +51 32 45.39  .05428 1.0270 142.4 21.1 4.74 103
2019 01 12 23  09 34 25.630   +51 30 52.98  .05409 1.0268 142.3 21.1 4.96 103
2019 01 13 00  09 35 29.542   +51 28 57.53  .05391 1.0266 142.2 21.1 5.18 103
2019 01 13 01  09 36 33.791   +51 26 58.99  .05372 1.0264 142.1 21.1 5.41 104
2019 01 13 02  09 37 38.375   +51 24 57.31  .05354 1.0262 142.0 21.1 5.64 104
2019 01 13 03  09 38 43.295   +51 22 52.46  .05336 1.0260 141.9 21.1 5.88 104
2019 01 13 04  09 39 48.551   +51 20 44.39  .05317 1.0258 141.8 21.1 6.13 104
2019 01 13 05  09 40 54.141   +51 18 33.04  .05299 1.0256 141.8 21.1 6.39 104
2019 01 13 06  09 42 00.065   +51 16 18.38  .05281 1.0254 141.7 21.1 6.65 104
2019 01 13 07  09 43 06.323   +51 14 00.35  .05263 1.0252 141.6 21.1 6.91 105
2019 01 13 08  09 44 12.914   +51 11 38.91  .05245 1.0251 141.5 21.1 7.19 105
2019 01 13 09  09 45 19.837   +51 09 14.01  .05227 1.0249 141.4 21.1 7.47 105
2019 01 13 10  09 46 27.092   +51 06 45.61  .05209 1.0247 141.3 21.1 7.75 105
2019 01 13 11  09 47 34.678   +51 04 13.65  .05191 1.0245 141.2 21.1 8.05 105
2019 01 13 12  09 48 42.593   +51 01 38.08  .05173 1.0243 141.1 21.0 8.35 105
2019 01 13 13  09 49 50.838   +50 58 58.86  .05155 1.0241 141.0 21.0 8.66 106
2019 01 13 14  09 50 59.410   +50 56 15.93  .05138 1.0239 140.9 21.0 8.97 106
2019 01 13 15  09 52 08.308   +50 53 29.25  .05120 1.0237 140.8 21.0 9.30 106
2019 01 13 16  09 53 17.532   +50 50 38.77  .05102 1.0235 140.7 21.0 9.63 106
2019 01 13 17  09 54 27.080   +50 47 44.43  .05085 1.0233 140.6 21.0 9.97 106
2019 01 13 18  09 55 36.951   +50 44 46.18  .05067 1.0231 140.5 21.0 10.3 107
2019 01 13 19  09 56 47.143   +50 41 43.97  .05050 1.0229 140.4 21.0 10.7 107
2019 01 13 20  09 57 57.654   +50 38 37.75  .05032 1.0227 140.3 21.0 11.0 107
2019 01 13 21  09 59 08.484   +50 35 27.47  .05015 1.0225 140.1 21.0 11.4 107
2019 01 13 22  10 00 19.630   +50 32 13.07  .04998 1.0223 140.0 21.0 11.8 107
2019 01 13 23  10 01 31.091   +50 28 54.50  .04980 1.0221 139.9 21.0 12.2 108
2019 01 14 00  10 02 42.864   +50 25 31.71  .04963 1.0220 139.8 21.0 12.6 108